EW0921 Weather Reports


Display with metric or nautical units.
time (UTC)temp
F
wind
direction
speed
MPH
gust
MPH
rain 1hr
in
rain 24hr
in
rain mn
in
humidity
%
barometer
mb
20260509200059 0 226 3.0 9.0 0.00 0.17 0.13 1006.9
20260509194547 0 247 3.0 11.0 0.00 0.18 0.13 1007.0
20260509193046 0 211 2.0 13.0 0.00 0.18 0.13 1007.2
20260509191552 0 270 3.0 10.0 0.00 0.18 0.13 1007.4
20260509190043 0 242 1.0 9.0 0.01 0.18 0.13 1007.4
20260509184535 0 227 2.0 8.0 0.01 0.18 0.13 1007.6
20260509183034 0 187 1.0 11.0 0.01 0.18 0.13 1007.8
20260509181521 0 274 2.0 8.0 0.01 0.18 0.13 1007.9
20260509180017 0 314 3.0 9.0 0.00 0.17 0.12 1007.8
20260509174512 0 133 2.0 10.0 0.00 0.17 0.12 1007.8
20260509173012 0 278 2.0 12.0 0.00 0.17 0.12 1007.9
20260509171503 0 228 0.0 7.0 0.00 0.17 0.12 1007.7
20260509170100 0 193 0.0 9.0 0.00 0.17 0.12 1007.6
20260509164556 0 221 0.0 9.0 0.00 0.17 0.12 1007.5
20260509163057 0 241 3.0 9.0 0.00 0.17 0.12 1007.6
20260509161546 0 209 0.0 4.0 0.00 0.17 0.12 1007.6
20260509160042 0 120 0.0 7.0 0.00 0.17 0.12 1007.6
20260509154537 0 224 0.0 5.0 0.01 0.17 0.12 1007.6
20260509153037 0 217 1.0 6.0 0.01 0.17 0.12 1007.7
20260509151529 0 241 0.0 5.0 0.01 0.17 0.12 1007.8
20260509150030 0 218 0.0 3.0 0.01 0.17 0.12 1007.7
20260509144520 0 232 0.0 4.0 0.00 0.16 0.11 1007.8
20260509143017 0 200 0.0 4.0 0.00 0.16 0.11 1007.8
20260509141519 0 240 0.0 3.0 0.01 0.16 0.11 1007.7
20260509140007 0 228 0.0 6.0 0.02 0.17 0.11 1007.8
20260509134503 0 206 0.0 4.0 0.03 0.17 0.11 1007.9
20260509133059 0 240 0.0 5.0 0.05 0.17 0.11 1008.0
20260509131622 0 245 0.0 1.0 0.05 0.16 0.10 1008.0
20260509124549 0 208 0.0 3.0 0.05 0.14 0.08 1008.0
20260509123049 0 259 1.0 4.0 0.04 0.12 0.06 1008.2
20260509121538 0 192 0.0 3.0 0.04 0.11 0.05 1008.2
20260509120034 0 220 0.0 3.0 0.04 0.11 0.05 1008.2
20260509114527 0 218 0.0 1.0 0.02 0.09 0.03 1008.2
20260509113024 0 176 0.0 2.0 0.01 0.08 0.02 1008.1
20260509111519 0 242 0.0 5.0 0.00 0.07 0.01 1008.0
20260509110021 0 149 0.0 1.0 0.00 0.07 0.01 1007.9
20260509104513 0 111 0.0 0.0 0.01 0.07 0.01 1007.8
20260509103006 0 111 0.0 0.0 0.01 0.07 0.01 1007.9
20260509101502 0 111 0.0 1.0 0.01 0.07 0.01 1007.8
20260509100058 0 111 0.0 0.0 0.01 0.07 0.01 1008.0
20260509094604 0 111 0.0 0.0 0.00 0.06 0.00 1008.1
20260509093049 0 111 0.0 0.0 0.00 0.06 0.00 1008.3
20260509091544 0 111 0.0 0.0 0.00 0.06 0.00 1008.4
20260509090047 0 111 0.0 0.0 0.00 0.06 0.00 1008.4
20260509084538 0 111 0.0 0.0 0.00 0.06 0.00 1008.5
20260509083033 0 111 0.0 0.0 0.00 0.06 0.00 1008.6
20260509081538 0 111 0.0 0.0 0.00 0.06 0.00 1008.6
20260509080022 0 111 0.0 0.0 0.00 0.06 0.00 1008.5
20260509074518 0 111 0.0 0.0 0.00 0.06 0.00 1008.5
20260509073014 0 111 0.0 0.0 0.00 0.06 0.00 1008.5
20260509071511 0 111 0.0 0.0 0.00 0.06 0.00 1008.6
20260509070006 0 111 0.0 0.0 0.00 0.06 0.00 1008.7
20260509064501 0 111 0.0 0.0 0.00 0.06 0.00 1008.8
20260509063057 0 111 0.0 1.0 0.00 0.06 0.00 1008.6
20260509061555 0 111 0.0 0.0 0.00 0.06 0.00 1009.0
20260509060048 0 111 0.0 0.0 0.00 0.06 0.00 1009.3
20260509054604 0 111 0.0 0.0 0.00 0.06 0.00 1009.2
20260509053134 0 111 0.0 0.0 0.00 0.06 0.00 1009.6
20260509051545 0 111 0.0 2.0 0.00 0.06 0.00 1009.7
20260509050040 0 111 0.0 0.0 0.00 0.06 0.00 1009.7
20260509044526 0 111 0.0 0.0 0.00 0.06 0.00 1009.9
20260509043021 0 111 0.0 0.0 0.00 0.06 0.00 1010.1
20260509041518 0 111 0.0 0.0 0.00 0.06 0.00 1010.4
20260509040017 0 111 0.0 0.0 0.01 0.06 0.00 1010.4
20260509034508 0 111 0.0 0.0 0.01 0.06 0.06 1010.8
20260509033004 0 111 0.0 0.0 0.02 0.06 0.06 1011.0
20260509031600 0 111 0.0 0.0 0.03 0.06 0.06 1011.0
20260509030109 0 111 0.0 0.0 0.02 0.05 0.05 1011.3
20260509024551 0 111 0.0 0.0 0.03 0.05 0.05 1011.5
20260509023050 0 111 0.0 0.0 0.02 0.04 0.04 1011.7
20260509021543 0 111 0.0 2.0 0.01 0.03 0.03 1011.5
20260509020045 0 234 0.0 1.0 0.01 0.03 0.03 1011.2
20260509014538 0 234 0.0 0.0 0.00 0.02 0.02 1010.9
20260509013030 0 236 0.0 0.0 0.00 0.02 0.02 1010.4
20260509011525 0 236 0.0 2.0 0.00 0.02 0.02 1010.6
20260509010021 0 237 0.0 1.0 0.00 0.02 0.02 1010.2
20260509004516 0 237 0.0 1.0 0.00 0.02 0.02 1010.1
20260509003012 0 237 0.0 0.0 0.00 0.02 0.02 1010.0
20260509001507 0 237 0.0 0.0 0.00 0.02 0.02 1010.0
20260509000005 0 237 0.0 0.0 0.00 0.02 0.02 1009.8
20260508234600 0 237 0.0 0.0 0.00 0.02 0.02 1009.7
20260508233055 0 237 0.0 0.0 0.00 0.02 0.02 1009.7
20260508231552 0 237 0.0 0.0 0.00 0.02 0.02 1010.0
20260508230046 0 237 0.0 1.0 0.00 0.02 0.02 1010.2
20260508224545 0 238 0.0 0.0 0.00 0.02 0.02 1010.1
20260508223037 0 238 0.0 0.0 0.00 0.02 0.02 1010.2
20260508221533 0 236 0.0 0.0 0.00 0.02 0.02 1010.5
20260508220029 0 236 0.0 1.0 0.00 0.02 0.02 1010.3
20260508214525 0 236 0.0 0.0 0.00 0.02 0.02 1010.4
20260508213019 0 236 0.0 0.0 0.00 0.02 0.02 1010.5
20260508211515 0 236 0.0 0.0 0.00 0.02 0.02 1010.4
20260508210015 0 236 0.0 1.0 0.00 0.02 0.02 1010.5
20260508204508 0 236 0.0 0.0 0.01 0.02 0.02 1010.4
20260508203002 0 236 0.0 1.0 0.01 0.02 0.02 1010.8
20260508201609 0 234 0.0 3.0 0.01 0.02 0.02 1010.7